Theta_e
347 346 346 347 346 347 349 349 347 347 347 345 345 344 343 344 344 344 346 345 343 343 347 345 345 346 346 344 347 346 345 343 342 345 344 344 343 340 337 341 340 337 336
346 345 347 348 349 346 348 347 348 347 345 345 343 342 341 340 342 342 342 346 344 341 343 343 343 345 345 345 344 343 347 344 343 340 341 341 342 340 338 337 339 337 336
347 345 347 345 347 346 345 346 347 346 345 343 342 340 340 340 339 341 342 342 345 343 343 343 342 343 343 347 345 344 344 343 343 343 340 339 343 341 338 340 340 336 335
346 346 346 344 344 346 346 348 347 346 345 342 341 340 341 340 340 340 340 341 340 342 344 343 344 342 343 343 348 345 344 344 342 341 343 342 340 337 335 336 337 336 336
348 348 346 345 346 347 346 347 346 345 342 340 339 340 340 340 340 339 341 342 342 342 340 343 342 344 343 347 346 344 343 344 344 343 342 341 341 343 342 335 334 334 338
347 349 346 346 347 349 347 345 345 344 342 342 341 340 340 340 339 340 341 340 338 344 346 346 346 346 344 344 343 342 342 342 343 343 343 344 343 342 342 342 340 336 335
348 347 346 346 345 347 346 346 344 343 341 343 342 338 339 339 338 338 339 336 332 335 339 342 345 345 346 343 343 343 343 343 342 342 342 343 343 343 343 340 340 342 342
349 349 348 346 345 345 345 343 343 342 341 343 342 340 337 339 339 338 336 330 329 331 333 337 337 339 341 342 341 341 342 343 343 344 343 342 342 342 343 344 343 338 337
349 349 345 346 344 339 339 343 342 343 341 342 342 340 338 338 337 337 337 330 328 328 329 332 334 335 332 333 334 336 335 337 339 342 343 344 343 342 342 342 343 344 342
349 347 344 334 337 339 341 341 340 342 342 339 339 341 340 339 337 335 331 329 326 325 327 326 327 327 325 325 324 322 321 325 330 336 339 341 342 344 344 342 341 342 343
349 347 339 333 335 339 339 337 341 340 340 339 338 338 338 336 337 333 330 328 327 326 325 325 325 324 324 323 324 325 320 319 319 320 324 331 338 340 342 342 344 343 342
348 346 333 334 336 339 339 336 338 337 339 339 339 337 333 331 331 331 332 331 329 327 325 325 324 325 324 322 321 320 319 319 319 319 319 320 323 330 338 342 344 344 346
346 340 333 334 338 338 336 334 334 338 336 338 339 336 335 334 335 334 333 331 331 327 327 326 324 324 324 324 323 318 319 318 318 318 319 319 319 322 326 333 339 343 345
344 336 334 333 335 335 330 333 337 337 337 335 337 337 335 335 335 335 334 333 331 328 327 327 324 324 324 324 324 322 324 319 318 318 318 318 318 319 321 325 331 337 341
340 335 332 334 335 328 330 336 335 335 334 336 337 337 336 335 335 335 335 333 331 332 331 326 325 325 325 325 325 326 325 322 318 318 318 317 317 317 318 319 323 330 335
337 335 332 335 331 330 329 333 334 334 334 334 335 337 337 335 335 335 334 333 331 330 332 325 325 325 326 327 326 325 326 323 321 319 318 317 317 317 317 318 319 322 328
336 334 331 332 333 332 331 331 333 334 333 334 337 336 336 333 334 333 333 333 332 330 330 327 325 327 327 327 328 327 327 326 323 322 320 317 317 318 318 318 318 319 322
333 330 330 330 332 334 334 335 335 332 334 335 335 336 336 335 336 334 333 333 331 331 330 329 327 327 327 328 327 327 326 325 324 323 321 318 319 319 318 317 318 319 320
331 332 331 329 331 334 336 336 333 333 334 334 334 335 335 335 335 332 332 331 330 329 329 329 327 325 326 327 326 326 325 325 324 322 321 320 320 320 318 318 318 319 319
333 334 332 330 331 334 334 333 331 332 332 333 332 334 334 329 332 331 331 331 330 329 328 328 326 326 325 325 325 325 324 323 323 322 322 321 321 320 319 320 320 320 320
333 333 328 329 329 330 331 328 332 333 334 334 333 331 333 329 326 325 326 327 329 329 327 326 325 325 325 324 324 324 324 323 322 321 321 321 321 320 320 320 321 321 322
330 331 331 329 331 332 329 327 329 333 335 335 334 334 332 327 325 324 322 321 323 326 326 327 326 326 325 324 324 323 322 321 322 321 322 321 320 320 319 320 320 320 321
330 331 333 333 333 332 329 328 329 330 333 334 334 333 331 329 327 325 322 321 323 323 323 325 325 324 323 322 321 320 319 320 320 321 320 321 320 319 319 319 320 320 320
331 334 336 334 334 334 331 330 331 331 333 334 333 332 330 329 329 323 324 325 325 325 324 322 321 321 320 318 317 318 317 317 318 319 320 322 319 319 318 318 319 319 319
335 336 337 334 335 334 332 331 331 331 331 331 333 329 327 326 323 322 320 323 324 323 322 318 316 316 314 314 315 315 317 319 319 320 318 317 317 317 317 318 319 320 320
335 335 333 333 333 333 332 331 326 330 331 330 330 327 324 322 322 320 319 322 322 322 319 317 317 316 316 316 316 317 318 318 319 318 317 316 316 317 318 318 319 322 324
Wind_Speed
8 7 6 4 4 3 2 4 5 6 8 8 7 7 7 8 7 7 8 9 7 6 7 7 11 15 15 15 16 16 16 15 14 15 13 13 13 13 12 12 12 11 10
10 9 8 6 4 6 4 5 5 5 6 7 8 7 8 9 8 9 8 8 7 6 8 8 9 13 17 16 16 16 17 17 16 16 16 17 16 14 14 14 13 12 12
12 9 10 7 6 6 7 6 6 4 4 5 6 7 9 10 9 8 6 7 7 7 7 8 10 12 14 18 18 18 19 16 19 19 17 17 17 17 15 15 15 14 13
13 11 10 8 8 7 6 5 5 5 4 5 7 9 9 9 9 8 7 6 8 9 10 10 8 10 13 16 19 20 19 19 18 21 21 19 18 19 19 19 19 17 16
12 10 9 9 8 7 7 4 2 4 6 7 8 9 8 7 6 5 5 4 4 6 8 10 9 9 11 13 16 17 19 21 22 21 21 22 22 21 20 19 19 19 19
12 11 9 7 7 5 2 2 3 4 5 7 9 9 6 2 5 4 5 6 8 7 4 4 5 5 8 11 13 14 17 18 21 22 23 24 24 24 23 22 22 20 21
11 10 7 6 5 4 3 3 3 4 4 4 7 7 1 2 7 4 4 5 8 6 7 7 4 1 3 6 7 10 13 16 18 21 22 23 25 26 26 25 25 24 23
12 11 8 6 6 4 4 4 3 3 4 3 4 3 2 3 1 3 5 7 9 7 7 6 6 6 5 4 3 5 8 11 15 17 21 22 23 24 26 27 26 26 26
12 10 8 6 5 5 4 2 1 2 3 1 2 3 1 1 6 0 2 5 9 9 9 8 8 8 8 7 7 7 6 6 9 12 15 17 20 23 24 26 28 28 27
11 11 9 7 6 6 4 2 2 1 1 2 1 1 1 2 2 1 1 2 5 7 9 8 9 9 10 10 10 9 8 9 10 11 13 14 17 20 22 24 26 29 30
13 12 10 8 7 7 6 5 3 2 2 2 2 2 2 1 2 2 4 6 4 4 6 7 5 4 7 10 10 12 14 13 12 12 13 16 17 19 19 23 26 29 29
15 16 13 12 10 9 9 6 5 4 3 3 3 4 2 2 3 4 4 6 8 5 8 7 7 6 6 8 10 14 15 18 16 16 15 15 17 20 22 20 22 26 31
15 16 15 15 13 12 9 8 7 5 5 5 5 5 5 5 4 5 7 9 6 7 4 6 4 5 5 9 11 17 16 18 19 19 19 18 18 18 22 25 24 24 26
17 16 16 15 16 13 12 11 7 6 7 7 8 8 8 9 8 8 8 8 8 9 9 9 9 6 7 11 13 17 15 20 19 19 20 21 20 21 21 24 28 28 28
16 17 16 17 17 15 13 10 8 7 7 9 10 10 10 10 11 11 11 10 10 9 10 12 9 7 10 13 16 17 16 18 22 20 20 20 22 24 23 24 26 31 32
21 19 19 19 16 15 13 11 10 10 9 10 10 10 11 11 12 13 12 12 12 13 11 16 15 17 17 16 17 17 18 24 22 23 21 21 24 26 26 27 28 29 33
24 22 22 20 17 16 14 13 13 12 12 12 12 11 12 12 12 12 12 13 15 14 15 24 20 17 19 20 19 18 20 20 20 23 27 27 29 29 30 31 29 31 32
26 26 23 21 19 16 14 14 13 13 13 13 12 10 12 10 11 13 13 15 15 16 18 20 26 23 20 22 21 21 22 20 22 24 28 30 28 33 36 35 32 32 34
26 25 22 22 20 16 16 16 17 14 13 13 13 13 13 12 13 12 13 14 15 17 16 17 23 25 22 21 23 23 22 23 23 24 28 28 30 33 36 38 37 36 36
27 26 24 22 18 16 17 15 15 15 15 14 15 14 15 15 13 12 12 14 15 15 16 17 21 23 23 21 20 23 25 25 27 27 29 31 33 35 34 36 38 39 38
17 22 25 24 21 22 17 18 17 15 15 15 14 15 15 15 15 14 13 15 14 15 16 19 21 22 22 22 22 24 27 28 29 28 31 31 32 34 40 36 38 38 38
31 27 36 28 26 21 19 20 18 16 14 16 16 14 15 18 18 17 16 17 17 16 19 20 20 20 22 23 24 25 27 28 20 25 24 36 34 37 38 40 39 41 41
34 35 35 34 33 29 23 21 19 19 18 17 16 16 15 14 17 15 16 17 17 17 17 15 16 19 22 24 24 27 26 25 26 29 32 38 35 40 41 42 42 43 45
33 37 36 35 34 29 27 20 17 16 18 17 15 16 16 18 12 14 13 14 14 12 11 12 14 17 20 24 23 23 28 29 28 30 30 33 38 42 44 44 43 45 45
30 27 26 22 19 21 21 22 16 14 18 22 17 16 14 13 13 14 13 13 14 14 12 16 20 23 27 26 22 20 23 21 23 30 34 35 43 43 42 41 41 41 43
16 19 17 15 19 21 23 25 24 21 18 24 17 15 13 12 13 14 12 10 11 11 13 17 20 20 19 20 21 16 19 20 24 26 36 36 38 35 21 31 36 33 32
Wind_Direction
251 247 243 246 282 297 301 298 309 317 322 325 326 329 327 322 315 311 305 307 283 264 235 235 232 226 232 228 222 224 221 225 228 231 231 228 233 235 235 238 238 244 245
249 255 246 256 273 290 291 299 296 309 316 321 325 329 324 317 311 310 302 300 295 266 248 246 246 237 230 230 234 225 229 232 243 234 235 235 237 242 248 246 246 247 249
252 254 254 272 268 277 293 303 308 304 307 319 319 321 318 314 303 301 307 300 298 279 257 253 252 243 237 231 229 230 236 235 235 241 238 240 239 247 253 254 257 251 248
247 243 255 259 266 267 286 298 297 303 309 316 315 312 314 312 308 301 294 294 291 280 282 272 259 242 241 241 236 236 235 241 239 244 245 244 243 245 247 249 253 251 249
248 247 259 261 265 260 282 284 282 300 310 318 315 310 310 315 322 327 340 350 330 301 272 275 266 255 242 241 247 248 249 247 246 242 244 248 251 249 252 254 253 253 254
251 253 265 271 236 255 244 253 272 290 302 311 310 311 313 91 35 69 47 43 25 18 357 304 276 257 254 246 248 252 255 257 255 254 251 247 249 253 254 255 254 254 255
249 252 258 247 234 208 222 245 278 297 302 313 320 333 340 189 52 40 65 37 17 19 22 29 33 4 285 256 253 249 253 256 264 263 260 257 253 252 254 255 255 254 256
244 249 233 203 198 219 229 253 252 287 303 320 337 326 346 144 318 65 53 39 24 27 25 26 24 17 19 16 334 273 255 251 252 259 264 263 261 260 258 257 257 257 256
235 217 213 208 223 218 218 219 276 254 293 326 339 328 287 18 337 271 23 25 29 32 35 37 40 40 27 24 15 4 317 297 275 267 262 258 263 266 263 262 261 260 257
210 211 215 228 218 203 210 268 285 240 252 305 320 189 310 324 338 302 315 19 31 60 57 52 45 48 39 30 24 13 353 323 302 291 281 276 266 259 262 266 263 260 261
208 212 220 223 224 210 233 264 228 237 242 287 257 262 259 219 206 276 309 332 351 18 16 19 30 39 31 32 21 11 17 7 346 325 304 287 278 270 271 263 263 265 262
208 216 219 221 223 228 237 233 215 222 232 231 240 250 234 294 312 291 298 317 319 325 342 357 352 347 1 359 1 358 359 359 357 352 337 318 298 279 271 272 268 260 261
209 217 219 225 223 233 234 213 210 212 209 209 222 235 243 257 266 278 289 307 294 299 298 303 311 310 311 341 339 340 336 344 347 347 346 336 320 303 283 272 268 262 256
211 216 222 224 216 223 212 205 218 224 223 223 231 232 246 254 253 256 264 283 298 286 300 297 301 300 296 305 317 328 320 322 332 339 341 342 339 326 307 286 270 264 259
207 213 215 207 209 210 204 209 223 232 235 234 243 245 250 258 256 252 248 248 271 296 299 307 297 299 307 304 304 311 311 313 318 321 327 328 331 327 319 304 286 268 261
210 211 206 206 212 212 217 227 235 237 240 244 243 251 256 262 267 264 259 257 250 263 285 296 289 290 298 298 297 299 298 307 309 310 315 317 324 330 325 312 294 281 266
214 212 208 210 213 215 220 232 241 247 248 251 254 258 263 271 271 277 274 260 256 250 263 288 292 284 289 296 299 296 296 294 296 299 303 306 310 315 320 316 304 284 274
220 213 212 214 218 215 216 228 239 248 246 253 259 261 271 273 269 277 275 263 262 256 255 273 291 293 286 290 295 296 296 291 292 293 293 301 303 309 310 311 303 289 274
218 223 222 220 218 223 225 231 238 241 243 253 260 265 268 268 270 272 267 268 272 275 267 264 280 291 292 293 296 296 293 293 293 294 298 296 295 298 299 302 297 291 279
216 225 226 223 225 229 232 234 236 241 249 255 267 264 263 267 257 269 276 275 278 277 280 274 280 287 293 299 295 292 295 297 296 296 294 290 293 297 293 293 289 287 281
268 255 241 233 228 232 231 231 234 243 254 264 266 272 266 262 265 267 274 284 280 279 283 283 286 290 293 302 302 302 297 299 295 295 292 291 296 294 295 291 286 280 276
191 254 259 241 242 234 232 234 238 251 260 268 273 266 262 266 268 275 282 281 277 278 280 279 288 292 296 300 303 304 303 299 299 297 289 291 296 294 291 290 283 276 267
202 214 235 237 241 240 238 238 245 260 264 264 267 265 268 269 277 278 282 286 292 290 277 276 282 288 297 300 303 302 298 289 284 292 297 291 297 290 287 284 278 273 268
204 219 228 231 235 239 240 244 260 273 277 273 270 269 270 277 276 282 285 288 289 284 277 277 281 289 294 296 296 292 288 286 285 288 289 287 298 289 289 283 276 270 262
213 216 226 222 220 227 235 240 254 286 294 286 277 272 267 268 272 283 286 282 288 286 288 300 304 305 306 306 305 297 289 291 289 294 303 295 293 286 285 279 275 270 260
211 199 203 216 226 226 224 229 234 238 247 275 264 262 264 263 275 281 277 275 280 296 302 307 309 307 304 303 305 296 293 290 294 298 299 295 292 287 286 278 272 266 257